Location: Shenandoah County Park
(38.9356°N, 78.4524°W)
Time: 07:25:42
(UTC-04:00)

Vanguard 1 Rocket - Pass Details

Date: 16 February 2023
Orbit: 652 x 4223 km, 34.3° (Epoch: 26 March)

Event Time Altitude Azimuth Distance (km) Brightness Sun altitude
Rises 13:58:16 0° 276° (W) 4,378 11.1 34.7°
Reaches altitude 10° 14:00:43 10° 271° (W) 3,718 11.0 34.4°
Maximum altitude 14:10:27 50° 199° (SSW) 2,812 11.7 33.5°
Drops below altitude 10° 14:28:46 10° 132° (SE) 6,680 12.0 31.6°
Sets 14:35:08 0° 128° (SE) 8,088 12.3 30.9°
